Els Cortals - Les Guilleries





Hora UTC 10:00
Temperatura 9.6 ºC
Humitat 65.0 %
Pressió 1013.8 hPa
Pluja 0.0 mm
Velocitat vent 11.3 km/h
Direcció vent NE

Dades diàries 2021-04-19



Hora UTC (hivern +1h; estiu +2h)
Temperatura (ºC) Humitat (%) Pressió (hPa) Velocitat vent (km/h) Precipitació (mm)
Hora UTC Aire Humitat Pressió Vel. Dir. Vel. Max Dir. Intent. màx 5 min.
00:05 3.0 83.0 1015.4 4.8 NW 4.8 0.0
00:10 2.9 83.0 1015.4 0.0 NW 8.0 0.0
00:15 2.9 84.0 1015.3 0.0 NW 6.4 0.0
00:20 2.9 84.0 1015.3 0.0 NW 0.0 0.0
00:25 3.0 84.0 1015.3 0.0 NW 1.6 0.0
00:30 2.9 83.0 1015.1 0.0 NW 1.6 0.0
00:35 2.9 83.0 1015.1 0.0 NW 0.0 0.0
00:40 3.0 84.0 1015.0 0.0 NW 0.0 0.0
00:45 3.2 83.0 1015.0 0.0 NW 0.0 0.0
00:50 3.2 83.0 1014.9 0.0 NW 0.0 0.0
00:55 3.1 83.0 1014.9 0.0 NW 0.0 0.0
01:00 3.1 83.0 1014.8 0.0 NW 0.0 0.0
01:05 3.1 83.0 1014.7 0.0 NW 6.4 0.0
01:10 3.2 83.0 1014.6 0.0 NW 6.4 0.0
01:15 3.2 83.0 1014.6 0.0 NW 1.6 0.0
01:20 3.2 83.0 1014.5 0.0 NW 0.0 0.0
01:25 3.3 83.0 1014.6 0.0 NW 0.0 0.0
01:30 3.4 83.0 1014.5 0.0 NW 0.0 0.0
01:35 3.6 81.0 1014.4 1.6 SSW 3.2 0.0
01:40 4.1 79.0 1014.4 6.4 SW 9.7 0.0
01:45 4.4 77.0 1014.4 0.0 SW 9.7 0.0
01:50 4.6 77.0 1014.4 0.0 WSW 6.4 0.0
01:55 4.5 77.0 1014.3 1.6 WSW 6.4 0.0
02:00 4.4 77.0 1014.2 0.0 WSW 3.2 0.0
02:05 4.2 78.0 1014.3 3.2 WNW 3.2 0.0
02:10 4.1 78.0 1014.3 6.4 NW 8.0 0.0
02:15 4.1 78.0 1014.3 3.2 NW 11.3 0.0
02:20 3.9 78.0 1014.2 3.2 NW 11.3 0.0
02:25 3.8 78.0 1014.2 3.2 NW 9.7 0.0
02:30 3.7 79.0 1014.2 8.0 NW 8.0 0.0
02:35 3.6 80.0 1014.2 8.0 NW 9.7 0.0
02:40 3.4 80.0 1014.1 1.6 NW 9.7 0.0
02:45 3.3 80.0 1014.1 0.0 NW 9.7 0.0
02:50 3.2 80.0 1014.1 0.0 NW 8.0 0.0
02:55 3.1 81.0 1014.0 0.0 NW 3.2 0.0
03:00 2.9 81.0 1014.1 0.0 NW 6.4 0.0
03:05 2.8 82.0 1014.1 0.0 NW 6.4 0.0
03:10 2.8 82.0 1014.1 0.0 NW 6.4 0.0
03:15 2.8 83.0 1014.1 3.2 NW 4.8 0.0
03:20 2.8 83.0 1014.0 0.0 NW 8.0 0.0
03:25 2.9 83.0 1014.1 0.0 NW 6.4 0.0
03:30 2.9 83.0 1014.0 0.0 NW 0.0 0.0
03:35 2.9 83.0 1014.0 0.0 NW 0.0 0.0
03:40 2.9 83.0 1013.9 0.0 NW 0.0 0.0
03:45 2.9 83.0 1013.8 0.0 NW 0.0 0.0
03:50 2.9 84.0 1013.8 0.0 NW 0.0 0.0
03:55 2.9 83.0 1013.8 0.0 NW 0.0 0.0
04:00 3.1 83.0 1013.8 0.0 NW 0.0 0.0
04:05 3.1 83.0 1013.8 0.0 NW 0.0 0.0
04:10 3.2 83.0 1013.8 0.0 NW 0.0 0.0
04:15 3.2 83.0 1013.8 0.0 NW 0.0 0.0
04:20 3.2 83.0 1013.8 0.0 NW 0.0 0.0
04:25 3.2 82.0 1013.9 0.0 NW 0.0 0.0
04:30 3.2 82.0 1013.9 0.0 NW 0.0 0.0
04:35 3.2 82.0 1013.8 0.0 NW 0.0 0.0
04:40 3.2 81.0 1013.7 0.0 NW 0.0 0.0
04:45 3.2 81.0 1013.7 0.0 NW 0.0 0.0
04:50 3.2 81.0 1013.7 0.0 NW 0.0 0.0
04:55 3.2 81.0 1013.7 0.0 NW 0.0 0.0
05:00 3.2 81.0 1013.9 0.0 NW 0.0 0.0
05:05 3.1 82.0 1013.7 0.0 NW 0.0 0.0
05:10 3.0 82.0 1013.8 0.0 NW 0.0 0.0
05:15 3.0 82.0 1013.9 0.0 NW 0.0 0.0
05:20 3.0 82.0 1013.9 0.0 NW 0.0 0.0
05:25 3.0 83.0 1013.9 0.0 NW 0.0 0.0
05:30 3.1 83.0 1014.0 0.0 NW 0.0 0.0
05:35 3.2 82.0 1013.9 0.0 NW 0.0 0.0
05:40 3.3 82.0 1014.0 0.0 NW 0.0 0.0
05:45 3.6 82.0 1014.0 0.0 NW 0.0 0.0
05:50 3.9 82.0 1014.0 0.0 NW 0.0 0.0
05:55 4.4 80.0 1014.1 0.0 NE 8.0 0.0
06:00 4.9 77.0 1014.1 0.0 NNE 8.0 0.0
06:05 5.1 75.0 1014.1 0.0 NNE 6.4 0.0
06:10 5.1 74.0 1014.2 0.0 NE 6.4 0.0
06:15 4.9 73.0 1014.1 0.0 ENE 8.0 0.0
06:20 4.8 74.0 1014.2 0.0 NE 9.7 0.0
06:25 4.7 74.0 1014.2 3.2 E 8.0 0.0
06:30 4.7 74.0 1014.2 1.6 NE 11.3 0.0
06:35 4.7 75.0 1014.2 3.2 ENE 11.3 0.0
06:40 4.7 75.0 1014.2 3.2 E 12.9 0.0
06:45 4.8 75.0 1014.4 1.6 NE 12.9 0.0
06:50 4.9 76.0 1014.3 0.0 NE 9.7 0.0
06:55 5.1 76.0 1014.4 0.0 ENE 11.3 0.0
07:00 5.3 75.0 1014.4 1.6 E 11.3 0.0
07:05 5.8 76.0 1014.3 4.8 E 11.3 0.0
07:10 6.3 74.0 1014.3 8.0 E 11.3 0.0
07:15 6.6 74.0 1014.3 6.4 E 11.3 0.0
07:20 6.8 72.0 1014.3 8.0 ENE 11.3 0.0
07:25 6.9 72.0 1014.2 6.4 E 11.3 0.0
07:30 7.2 73.0 1014.1 6.4 ENE 11.3 0.0
07:35 7.7 70.0 1014.1 6.4 ENE 11.3 0.0
07:40 7.9 69.0 1014.1 9.7 E 19.3 0.0
07:45 8.0 68.0 1014.1 8.0 E 19.3 0.0
07:50 7.9 68.0 1014.1 0.0 E 17.7 0.0
07:55 7.9 68.0 1014.0 11.3 ENE 17.7 0.0
08:00 7.7 68.0 1014.1 1.6 ENE 14.5 0.0
08:05 7.7 70.0 1014.0 3.2 ENE 14.5 0.0
08:10 7.9 70.0 1014.0 8.0 ENE 17.7 0.0
08:15 8.2 70.0 1014.0 8.0 ESE 17.7 0.0
08:20 8.4 68.0 1013.9 8.0 ENE 17.7 0.0
08:25 8.4 66.0 1014.0 0.0 ENE 16.1 0.0
08:30 8.6 67.0 1013.9 6.4 ENE 17.7 0.0
08:35 8.6 66.0 1013.9 6.4 N 20.9 0.0
08:40 8.6 67.0 1013.9 6.4 NE 20.9 0.0
08:45 8.7 66.0 1013.9 16.1 ESE 22.5 0.0
08:50 8.8 67.0 1013.9 1.6 E 22.5 0.0
08:55 8.8 65.0 1013.9 12.9 NE 19.3 0.0
09:00 9.0 67.0 1013.8 9.7 NE 19.3 0.0
09:05 9.3 66.0 1013.9 14.5 ESE 17.7 0.0
09:10 9.2 63.0 1013.8 16.1 ENE 17.7 0.0
09:15 9.1 65.0 1013.7 4.8 ENE 17.7 0.0
09:20 9.3 64.0 1013.7 12.9 E 20.9 0.0
09:25 9.3 63.0 1013.8 6.4 ESE 20.9 0.0
09:30 9.3 64.0 1013.9 8.0 E 20.9 0.0
09:35 9.4 65.0 1014.0 3.2 E 20.9 0.0
09:40 9.6 64.0 1014.0 14.5 ENE 22.5 0.0
09:45 9.3 63.0 1013.9 16.1 ESE 22.5 0.0
09:50 9.4 66.0 1014.0 0.0 ENE 19.3 0.0
09:55 9.4 65.0 1013.8 14.5 ESE 17.7 0.0
10:00 9.6 65.0 1013.8 11.3 NE 20.9 0.0
Màxima 9.6 84.0 1015.4 16.1 ESE 22.5 0.0
Mínima 2.8 63.0 1013.7
Total 0.0